Date String (YYYY-MM-DD hh:mm:ss) UTC,Instrument flags,Ambient pressure (hPa),Sample flow (lpm),Bypass flow (lpm),Sample temperature (°C),Ambient temperature (°C),ASC tube jacket temperature (°C),LED temperature (°C),Box temperature (°C),Sample RH (%),Span deviation,Mass concentration (μg/m³),Mass concentration (μg/m³),Mass concentration (μg/m³)
DateTimeUTC,F1_M11,P_M11,Q1_M11,Q2_M11,T1_M11,T2_M11,T3_M11,T4_M11,T5_M11,U1_M11,ZSPAN_M11,X2_M11,X0_M11,X1_M11
2022-01-18 04:00:00,,0821.0,5.00,0.00,25.7,24.8,00.0,34.7,27.5,08.3,0000.0,0004.46,0010.34,0003.82
2022-01-18 04:01:00,,0821.0,4.99,0.00,25.6,24.8,00.0,34.6,27.4,08.3,0000.0,0004.52,0010.63,0003.89
2022-01-18 04:02:00,,0821.0,5.00,0.00,25.6,24.8,00.0,34.6,27.4,08.4,0000.0,0004.62,0011.15,0003.94
2022-01-18 04:03:00,,0821.0,4.99,0.00,25.6,24.7,00.0,34.6,27.3,08.3,0000.0,0004.69,0011.08,0003.99
2022-01-18 04:04:00,,0820.9,5.00,0.00,25.5,24.7,00.0,34.6,27.3,08.4,0000.0,0004.71,0010.99,0004.01
2022-01-18 04:05:00,,0820.9,5.00,0.00,25.5,24.7,00.0,34.6,27.3,08.4,0000.0,0004.74,0010.91,0004.06
2022-01-18 04:06:00,,0820.9,5.00,0.00,25.5,24.7,00.0,34.6,27.3,08.4,0000.0,0004.80,0010.72,0004.13
2022-01-18 04:07:00,,0820.8,5.00,0.00,25.5,24.7,00.0,34.6,27.3,08.5,0000.0,0004.85,0010.23,0004.19
2022-01-18 04:08:00,,0820.9,5.00,0.00,25.5,24.7,00.0,34.6,27.3,08.7,0000.0,0004.93,0010.53,0004.28
2022-01-18 04:09:00,,0820.9,5.00,0.00,25.5,24.7,00.0,34.6,27.3,08.7,0000.0,0005.03,0012.49,0004.37
2022-01-18 04:10:00,,0820.9,5.01,0.00,25.6,24.7,00.0,34.6,27.3,08.6,0000.0,0005.04,0012.96,0004.39
2022-01-18 04:11:00,,0820.9,4.99,0.00,25.6,24.8,00.0,34.6,27.4,08.4,0000.0,0004.99,0013.52,0004.38
2022-01-18 04:12:00,,0821.0,5.00,0.00,25.6,24.8,00.0,34.6,27.4,08.5,0000.0,0005.02,0013.64,0004.41
2022-01-18 04:13:00,,0821.0,5.00,0.00,25.5,24.8,00.0,34.6,27.3,08.5,0000.0,0005.08,0014.04,0004.48
2022-01-18 04:14:00,,0821.0,5.01,0.00,25.6,24.8,00.0,34.6,27.3,08.5,0000.0,0005.13,0014.32,0004.54
2022-01-18 04:15:00,,0821.0,5.00,0.00,25.5,24.8,00.0,34.6,27.3,08.5,0000.0,0005.19,0015.62,0004.62
2022-01-18 04:16:00,,0821.0,5.00,0.00,25.5,24.7,00.0,34.5,27.3,08.4,0000.0,0005.25,0016.00,0004.66
2022-01-18 04:17:00,,0820.9,4.98,0.00,25.5,24.7,00.0,34.5,27.2,08.3,0000.0,0005.27,0015.89,0004.66
2022-01-18 04:18:00,,0821.0,5.01,0.00,25.5,24.7,00.0,34.5,27.2,08.2,0000.0,0005.31,0016.17,0004.67
2022-01-18 04:19:00,,0821.0,5.00,0.00,25.5,24.7,00.0,34.5,27.3,08.2,0000.0,0005.29,0016.19,0004.65
2022-01-18 04:20:00,,0821.0,4.98,0.00,25.5,24.7,00.0,34.5,27.3,08.3,0000.0,0005.25,0014.52,0004.61
2022-01-18 04:21:00,,0821.0,5.01,0.00,25.5,24.7,00.0,34.5,27.3,08.4,0000.0,0005.30,0014.80,0004.62
2022-01-18 04:22:00,,0821.0,4.99,0.00,25.5,24.7,00.0,34.5,27.3,08.3,0000.0,0005.32,0014.73,0004.62
2022-01-18 04:23:00,,0821.0,5.00,0.00,25.5,24.7,00.0,34.5,27.3,08.3,0000.0,0005.31,0015.23,0004.61
2022-01-18 04:24:00,,0821.0,5.00,0.00,25.5,24.7,00.0,34.5,27.3,08.2,0000.0,0005.28,0015.43,0004.60
2022-01-18 04:25:00,,0821.0,5.00,0.00,25.5,24.7,00.0,34.5,27.3,08.3,0000.0,0005.28,0015.64,0004.58
2022-01-18 04:26:00,,0821.0,5.00,0.00,25.5,24.7,00.0,34.5,27.3,08.3,0000.0,0005.26,0014.51,0004.56
2022-01-18 04:27:00,,0820.9,4.99,0.00,25.5,24.7,00.0,34.5,27.3,08.3,0000.0,0005.24,0013.82,0004.55
2022-01-18 04:28:00,,0821.0,5.00,0.00,25.5,24.7,00.0,34.5,27.3,08.2,0000.0,0005.23,0013.75,0004.56
2022-01-18 04:29:00,,0821.0,4.99,0.00,25.5,24.6,00.0,34.5,27.2,08.2,0000.0,0005.26,0014.06,0004.56
2022-01-18 04:30:00,,0821.0,5.00,0.00,25.4,24.6,00.0,34.5,27.2,08.2,0000.0,0005.26,0014.01,0004.58
2022-01-18 04:31:00,,0821.0,5.00,0.00,25.4,24.6,00.0,34.5,27.2,08.2,0000.0,0005.23,0014.46,0004.58
2022-01-18 04:32:00,,0821.0,5.01,0.00,25.4,24.6,00.0,34.4,27.2,08.2,0000.0,0005.17,0013.34,0004.58
2022-01-18 04:33:00,,0821.0,5.02,0.00,25.4,24.6,00.0,34.4,27.2,08.2,0000.0,0005.14,0013.65,0004.59
2022-01-18 04:34:00,,0821.0,4.98,0.00,25.4,24.6,00.0,34.4,27.2,08.2,0000.0,0005.20,0014.10,0004.59
2022-01-18 04:35:00,,0821.0,5.02,0.00,25.4,24.6,00.0,34.4,27.2,08.2,0000.0,0005.21,0012.81,0004.60
2022-01-18 04:36:00,,0821.0,4.98,0.00,25.5,24.7,00.0,34.4,27.2,08.2,0000.0,0005.21,0012.52,0004.61
2022-01-18 04:37:00,,0820.9,5.02,0.00,25.5,24.7,00.0,34.4,27.3,08.1,0000.0,0005.21,0012.78,0004.62
2022-01-18 04:38:00,,0821.0,4.98,0.00,25.5,24.7,00.0,34.4,27.3,08.1,0000.0,0005.24,0013.38,0004.64
2022-01-18 04:39:00,,0821.0,5.02,0.00,25.5,24.7,00.0,34.4,27.3,08.1,0000.0,0005.30,0013.89,0004.66
2022-01-18 04:40:00,,0821.0,5.00,0.00,25.5,24.7,00.0,34.4,27.3,08.1,0000.0,0005.32,0013.65,0004.68
2022-01-18 04:41:00,,0821.0,5.00,0.00,25.5,24.7,00.0,34.4,27.3,08.3,0000.0,0005.36,0013.19,0004.70
2022-01-18 04:42:00,,0820.9,5.00,0.00,25.5,24.7,00.0,34.4,27.3,08.2,0000.0,0005.43,0013.77,0004.72
2022-01-18 04:43:00,,0820.8,5.00,0.00,25.5,24.7,00.0,34.4,27.3,08.1,0000.0,0005.43,0014.50,0004.74
2022-01-18 04:44:00,,0820.8,5.01,0.00,25.5,24.7,00.0,34.4,27.3,08.2,0000.0,0005.45,0014.12,0004.76
2022-01-18 04:45:00,,0820.8,4.99,0.00,25.5,24.7,00.0,34.5,27.3,08.2,0000.0,0005.43,0013.04,0004.78
2022-01-18 04:46:00,,0820.9,4.99,0.00,25.5,24.7,00.0,34.4,27.3,08.2,0000.0,0005.47,0013.37,0004.79
2022-01-18 04:47:00,,0820.8,5.00,0.00,25.5,24.7,00.0,34.4,27.3,08.3,0000.0,0005.51,0013.62,0004.82
2022-01-18 04:48:00,,0820.8,4.99,0.00,25.5,24.7,00.0,34.4,27.3,08.2,0000.0,0005.52,0014.27,0004.82
2022-01-18 04:49:00,,0820.8,5.01,0.00,25.5,24.7,00.0,34.4,27.3,08.3,0000.0,0005.53,0014.16,0004.84
2022-01-18 04:50:00,,0820.9,4.99,0.00,25.5,24.7,00.0,34.4,27.3,08.3,0000.0,0005.57,0014.14,0004.85
2022-01-18 04:51:00,,0820.8,4.99,0.00,25.5,24.6,00.0,34.4,27.2,08.2,0000.0,0005.60,0014.19,0004.86
2022-01-18 04:52:00,,0820.8,4.99,0.00,25.5,24.6,00.0,34.4,27.3,08.2,0000.0,0005.63,0014.63,0004.85
2022-01-18 04:53:00,,0820.9,5.01,0.00,25.5,24.7,00.0,34.4,27.3,08.3,0000.0,0005.63,0013.47,0004.84
2022-01-18 04:54:00,,0820.9,4.99,0.00,25.5,24.7,00.0,34.4,27.3,08.3,0000.0,0005.66,0013.03,0004.84
2022-01-18 04:55:00,,0820.9,5.00,0.00,25.5,24.6,00.0,34.4,27.3,08.1,0000.0,0005.68,0013.34,0004.85
2022-01-18 04:56:00,,0820.8,5.01,0.00,25.5,24.6,00.0,34.4,27.3,08.1,0000.0,0005.70,0013.54,0004.86
2022-01-18 04:57:00,,0820.9,4.99,0.00,25.5,24.6,00.0,34.4,27.3,08.0,0000.0,0005.74,0013.29,0004.91
2022-01-18 04:58:00,,0820.8,5.01,0.00,25.5,24.6,00.0,34.4,27.3,08.0,0000.0,0005.75,0013.64,0004.93
2022-01-18 04:59:00,,0820.8,5.00,0.00,25.4,24.6,00.0,34.4,27.2,08.1,0000.0,0005.77,0013.59,0004.94
